timestamp,wind_dir_avg,wind_spd_avg,wind_spd_max_dir,wind_spd_gust,battery_voltage,lat,long
2023-02-28 00:04:00+00:00,310.0,5.95,300.0,8.7,12.33,47.59359,-54.27349
2023-02-28 00:14:00+00:00,318.0,6.16,304.0,9.99,12.25,47.59359,-54.27349
2023-02-28 00:24:00+00:00,327.0,6.13,330.0,7.16,12.25,47.59359,-54.27349
2023-02-28 00:34:00+00:00,334.0,6.51,331.0,7.47,12.25,47.59359,-54.27349
2023-02-28 00:44:00+00:00,336.0,6.77,336.0,7.86,12.25,47.59359,-54.27349
2023-02-28 00:54:00+00:00,335.0,7.18,338.0,8.54,12.25,47.59359,-54.27349
2023-02-28 01:04:00+00:00,334.0,6.89,329.0,8.21,12.25,47.59359,-54.27349
2023-02-28 01:14:00+00:00,330.0,7.14,319.0,9.46,12.17,47.59359,-54.27349
2023-02-28 01:24:00+00:00,332.0,7.74,323.0,9.19,12.17,47.59359,-54.27349
2023-02-28 01:34:00+00:00,336.0,7.64,332.0,9.06,12.17,47.59359,-54.27349
2023-02-28 01:44:00+00:00,331.0,8.6,332.0,9.55,12.17,47.59359,-54.27349
2023-02-28 01:54:00+00:00,333.0,7.75,332.0,8.91,12.17,47.59359,-54.27349
2023-02-28 02:04:00+00:00,336.0,7.43,339.0,8.91,12.17,47.59359,-54.27349
2023-02-28 02:14:00+00:00,331.0,6.66,331.0,8.92,12.17,47.59359,-54.27349
2023-02-28 02:24:00+00:00,333.0,7.27,340.0,8.69,12.17,47.59359,-54.27349
2023-02-28 02:34:00+00:00,328.0,5.91,324.0,7.21,12.17,47.59359,-54.27349
2023-02-28 02:44:00+00:00,330.0,6.11,341.0,7.82,12.17,47.59359,-54.27349
2023-02-28 02:54:00+00:00,336.0,7.77,344.0,9.17,12.17,47.59359,-54.27349
2023-02-28 03:04:00+00:00,343.0,8.77,338.0,9.76,12.17,47.59359,-54.27349
2023-02-28 03:14:00+00:00,333.0,8.44,333.0,9.87,12.17,47.59359,-54.27349
2023-02-28 03:24:00+00:00,339.0,7.73,341.0,9.09,12.17,47.59359,-54.27349
2023-02-28 03:34:00+00:00,330.0,7.06,328.0,8.15,12.17,47.59359,-54.27349
2023-02-28 03:44:00+00:00,327.0,5.93,324.0,7.01,12.17,47.59359,-54.27349
2023-02-28 03:54:00+00:00,322.0,5.54,326.0,6.69,12.17,47.59359,-54.27349
2023-02-28 04:04:00+00:00,332.0,6.21,324.0,7.15,12.17,47.59359,-54.27349
2023-02-28 04:14:00+00:00,335.0,6.57,335.0,7.46,12.09,47.59359,-54.27349
2023-02-28 04:24:00+00:00,334.0,7.17,340.0,7.98,12.09,47.59359,-54.27349
2023-02-28 04:34:00+00:00,330.0,7.34,319.0,9.0,12.09,47.59359,-54.27349
2023-02-28 04:44:00+00:00,335.0,6.31,325.0,7.58,12.09,47.59359,-54.27349
2023-02-28 04:54:00+00:00,326.0,6.62,321.0,8.32,12.09,47.59359,-54.27349
2023-02-28 05:04:00+00:00,327.0,6.26,321.0,7.72,12.09,47.59359,-54.27349
2023-02-28 05:14:01+00:00,326.0,6.42,320.0,7.55,12.09,47.59359,-54.27349
2023-02-28 05:24:01+00:00,324.0,6.13,314.0,7.82,12.09,47.59359,-54.27349
2023-02-28 05:34:01+00:00,323.0,5.96,331.0,7.82,12.09,47.59359,-54.27349
2023-02-28 05:44:01+00:00,324.0,6.35,322.0,8.12,12.09,47.59359,-54.27349
2023-02-28 05:54:01+00:00,324.0,6.55,319.0,8.29,12.09,47.59359,-54.27349
2023-02-28 06:04:01+00:00,324.0,6.44,311.0,7.79,12.09,47.59359,-54.27349
2023-02-28 06:14:00+00:00,315.0,6.37,311.0,8.23,12.01,47.59359,-54.27349
2023-02-28 06:24:00+00:00,315.0,6.36,303.0,8.71,12.01,47.59359,-54.27349
2023-02-28 06:34:00+00:00,316.0,6.81,313.0,8.08,12.01,47.59359,-54.27349
2023-02-28 06:44:00+00:00,320.0,6.77,320.0,8.56,12.01,47.59359,-54.27349
2023-02-28 06:54:00+00:00,324.0,6.89,317.0,8.03,12.01,47.59359,-54.27349
2023-02-28 07:04:00+00:00,321.0,7.22,310.0,8.42,12.01,47.59359,-54.27349
2023-02-28 07:14:01+00:00,314.0,7.68,313.0,8.78,11.93,47.59359,-54.27349
2023-02-28 07:24:01+00:00,318.0,6.09,319.0,7.75,11.93,47.59359,-54.27349
2023-02-28 07:34:01+00:00,313.0,6.41,312.0,7.87,11.93,47.59359,-54.27349
2023-02-28 07:44:01+00:00,320.0,6.14,320.0,6.83,11.93,47.59359,-54.27349
2023-02-28 07:54:01+00:00,322.0,6.61,313.0,8.07,11.93,47.59359,-54.27349
2023-02-28 08:04:01+00:00,320.0,6.45,310.0,8.18,11.93,47.59359,-54.27349
2023-02-28 08:14:00+00:00,312.0,6.41,308.0,7.82,11.93,47.59359,-54.27349
2023-02-28 08:24:00+00:00,312.0,7.15,310.0,7.99,11.93,47.59359,-54.27349
2023-02-28 08:34:00+00:00,311.0,6.39,303.0,7.66,11.93,47.59359,-54.27349
2023-02-28 08:44:00+00:00,311.0,7.21,315.0,8.21,11.93,47.59359,-54.27349
2023-02-28 08:54:00+00:00,318.0,8.2,317.0,9.21,11.93,47.59359,-54.27349
2023-02-28 09:04:00+00:00,312.0,6.55,315.0,8.52,11.93,47.59359,-54.27349
2023-02-28 09:14:01+00:00,350.0,4.34,310.0,6.78,11.93,47.59359,-54.27349
2023-02-28 09:24:01+00:00,309.0,6.84,307.0,8.1,11.93,47.59359,-54.27349
2023-02-28 09:34:01+00:00,307.0,5.56,315.0,8.09,11.93,47.59359,-54.27349
2023-02-28 09:44:01+00:00,310.0,5.61,306.0,7.64,11.93,47.59359,-54.27349
2023-02-28 09:54:01+00:00,317.0,6.64,310.0,8.3,11.93,47.59359,-54.27349
2023-02-28 10:04:01+00:00,315.0,6.78,314.0,7.48,11.93,47.59359,-54.27349
2023-02-28 10:14:00+00:00,314.0,7.65,316.0,8.7,11.86,47.59359,-54.27349
2023-02-28 10:24:00+00:00,316.0,7.61,321.0,8.96,11.86,47.59359,-54.27349
2023-02-28 10:34:00+00:00,317.0,6.08,311.0,7.91,11.86,47.59359,-54.27349
2023-02-28 10:44:00+00:00,308.0,5.76,306.0,7.45,11.86,47.59359,-54.27349
2023-02-28 10:54:00+00:00,314.0,6.47,311.0,8.14,11.86,47.59359,-54.27349
2023-02-28 11:04:00+00:00,316.0,5.29,299.0,6.76,11.86,47.59359,-54.27349
2023-02-28 11:14:00+00:00,311.0,5.24,302.0,7.08,13.84,47.59359,-54.27349
2023-02-28 11:24:00+00:00,309.0,5.85,302.0,7.01,13.84,47.59359,-54.27349
2023-02-28 11:34:00+00:00,316.0,5.24,306.0,7.16,13.84,47.59359,-54.27349
2023-02-28 11:44:00+00:00,309.0,6.14,311.0,7.38,13.84,47.59359,-54.27349
2023-02-28 11:54:00+00:00,322.0,5.62,316.0,8.1,13.84,47.59359,-54.27349
2023-02-28 12:04:00+00:00,329.0,4.94,315.0,7.17,13.84,47.59359,-54.27349
2023-02-28 12:14:00+00:00,317.0,5.18,304.0,6.88,14.48,47.59359,-54.27349
2023-02-28 12:24:00+00:00,328.0,5.91,314.0,7.27,14.48,47.59359,-54.27349
2023-02-28 12:34:00+00:00,349.0,5.53,359.0,6.57,14.48,47.59359,-54.27349
2023-02-28 12:44:00+00:00,350.0,6.47,350.0,7.61,14.48,47.59359,-54.27349
2023-02-28 12:54:00+00:00,348.0,5.67,351.0,6.64,14.48,47.59359,-54.27349
2023-02-28 13:04:00+00:00,353.0,5.76,342.0,7.22,14.48,47.59359,-54.27349
2023-02-28 13:14:00+00:00,356.0,5.56,351.0,7.07,13.68,47.59359,-54.27349
2023-02-28 13:24:00+00:00,3.0,6.23,1.0,7.18,13.68,47.59359,-54.27349
2023-02-28 13:34:00+00:00,1.0,5.63,358.0,6.83,13.68,47.59359,-54.27349
2023-02-28 13:44:00+00:00,16.0,6.35,12.0,7.19,13.68,47.59359,-54.27349
2023-02-28 13:54:00+00:00,4.0,6.38,358.0,7.66,13.68,47.59359,-54.27349
2023-02-28 14:04:00+00:00,357.0,5.93,355.0,7.55,13.68,47.59359,-54.27349
2023-02-28 14:14:00+00:00,339.0,5.33,334.0,6.87,14.0,47.59359,-54.27349
2023-02-28 14:24:00+00:00,336.0,6.84,332.0,8.01,14.0,47.59359,-54.27349
2023-02-28 14:34:00+00:00,327.0,7.3,327.0,8.3,14.0,47.59359,-54.27349
2023-02-28 14:44:00+00:00,329.0,7.8,325.0,9.08,14.0,47.59359,-54.27349
2023-02-28 14:54:00+00:00,329.0,7.88,328.0,9.45,14.0,47.59359,-54.27349
2023-02-28 15:04:00+00:00,326.0,7.6,319.0,9.13,14.0,47.59359,-54.27349
2023-02-28 15:14:00+00:00,340.0,6.35,336.0,8.19,13.76,47.59359,-54.27349
2023-02-28 15:24:00+00:00,338.0,7.17,341.0,9.22,13.76,47.59359,-54.27349
2023-02-28 15:34:00+00:00,327.0,6.24,326.0,7.18,13.76,47.59359,-54.27349
2023-02-28 15:44:00+00:00,326.0,7.39,323.0,8.44,13.76,47.59359,-54.27349
2023-02-28 15:54:00+00:00,331.0,6.68,327.0,8.01,13.76,47.59359,-54.27349
2023-02-28 16:04:00+00:00,329.0,7.27,348.0,11.1,13.76,47.59359,-54.27349
2023-02-28 16:14:00+00:00,328.0,6.7,336.0,8.08,13.76,47.59359,-54.27349
2023-02-28 16:24:00+00:00,330.0,8.76,326.0,9.76,13.76,47.59359,-54.27349
2023-02-28 16:34:00+00:00,326.0,6.8,327.0,7.83,13.76,47.59359,-54.27349
2023-02-28 16:44:00+00:00,330.0,8.92,326.0,10.82,13.76,47.59359,-54.27349
2023-02-28 16:54:00+00:00,334.0,8.52,336.0,10.21,13.76,47.59359,-54.27349
2023-02-28 17:04:00+00:00,323.0,6.36,320.0,7.63,13.76,47.59359,-54.27349
2023-02-28 17:14:00+00:00,324.0,7.12,310.0,8.99,14.32,47.59359,-54.27349
2023-02-28 17:24:00+00:00,330.0,6.22,332.0,7.4,14.32,47.59359,-54.27349
2023-02-28 17:34:00+00:00,344.0,7.0,340.0,9.22,14.32,47.59359,-54.27349
2023-02-28 17:44:00+00:00,343.0,4.69,332.0,5.62,14.32,47.59359,-54.27349
2023-02-28 17:54:00+00:00,350.0,5.28,342.0,6.23,14.32,47.59359,-54.27349
2023-02-28 18:04:00+00:00,355.0,5.67,345.0,7.04,14.32,47.59359,-54.27349
2023-02-28 18:14:00+00:00,342.0,6.53,358.0,8.22,13.68,47.59359,-54.27349
2023-02-28 18:24:00+00:00,3.0,6.71,6.0,8.06,13.68,47.59359,-54.27349
2023-02-28 18:34:00+00:00,357.0,6.37,353.0,7.77,13.68,47.59359,-54.27349
2023-02-28 18:44:00+00:00,348.0,5.89,350.0,7.34,13.68,47.59359,-54.27349
2023-02-28 18:54:00+00:00,358.0,5.73,356.0,6.92,13.68,47.59359,-54.27349
2023-02-28 19:04:00+00:00,343.0,7.0,346.0,8.1,13.68,47.59359,-54.27349
2023-02-28 19:14:00+00:00,358.0,5.07,1.0,7.31,14.4,47.59359,-54.27349
2023-02-28 19:24:00+00:00,351.0,6.27,350.0,8.91,14.4,47.59359,-54.27349
2023-02-28 19:34:00+00:00,20.0,5.08,33.0,6.81,14.4,47.59359,-54.27349
2023-02-28 19:44:00+00:00,353.0,5.11,358.0,7.38,14.4,47.59359,-54.27349
2023-02-28 19:54:00+00:00,4.0,6.42,2.0,7.81,14.4,47.59359,-54.27349
2023-02-28 20:04:00+00:00,7.0,5.69,2.0,7.08,14.4,47.59359,-54.27349
2023-02-28 20:14:00+00:00,5.0,6.62,3.0,8.74,13.53,47.59359,-54.27349
2023-02-28 20:24:00+00:00,3.0,5.84,7.0,6.84,13.53,47.59359,-54.27349
2023-02-28 20:34:00+00:00,351.0,6.84,353.0,7.85,13.53,47.59359,-54.27349
2023-02-28 20:44:00+00:00,5.0,4.78,2.0,5.55,13.53,47.59359,-54.27349
2023-02-28 20:54:00+00:00,14.0,4.85,15.0,5.55,13.53,47.59359,-54.27349
2023-02-28 21:04:00+00:00,341.0,4.88,346.0,6.06,13.53,47.59359,-54.27349
2023-02-28 21:14:00+00:00,358.0,6.4,1.0,7.24,13.37,47.59359,-54.27349
2023-02-28 21:24:00+00:00,341.0,5.28,337.0,6.5,13.37,47.59359,-54.27349
2023-02-28 21:34:00+00:00,339.0,6.92,336.0,8.3,13.37,47.59359,-54.27349
2023-02-28 21:44:00+00:00,13.0,4.67,16.0,5.95,13.37,47.59359,-54.27349
2023-02-28 21:54:00+00:00,2.0,5.35,23.0,6.41,13.37,47.59359,-54.27349
2023-02-28 22:04:00+00:00,330.0,4.63,330.0,5.96,13.37,47.59359,-54.27349
2023-02-28 22:14:00+00:00,332.0,4.84,339.0,5.98,12.49,47.59359,-54.27349
2023-02-28 22:24:00+00:00,349.0,4.22,347.0,5.66,12.49,47.59359,-54.27349
2023-02-28 22:34:00+00:00,341.0,3.96,341.0,4.89,12.49,47.59359,-54.27349
2023-02-28 22:44:00+00:00,359.0,4.03,1.0,5.1,12.49,47.59359,-54.27349
2023-02-28 22:54:00+00:00,11.0,5.18,7.0,6.04,12.49,47.59359,-54.27349
2023-02-28 23:04:00+00:00,16.0,4.91,16.0,6.21,12.49,47.59359,-54.27349
2023-02-28 23:14:00+00:00,23.0,4.88,19.0,5.64,12.33,47.59359,-54.27349
2023-02-28 23:24:00+00:00,12.0,4.44,11.0,5.3,12.33,47.59359,-54.27349
2023-02-28 23:34:00+00:00,19.0,4.79,14.0,5.72,12.33,47.59359,-54.27349
2023-02-28 23:44:00+00:00,4.0,5.47,358.0,6.54,12.33,47.59359,-54.27349
2023-02-28 23:54:00+00:00,359.0,6.22,3.0,7.37,12.33,47.59359,-54.27349
